| time (UTC) | temp F | wind direction | speed MPH | gust MPH | rain 1hr in | rain 24hr in | rain mn in | humidity % | barometer mb |
| 20260507083010 | 0 | 0.0 | 0.0 | 0.00 | 0.00 | 0.00 | 1019.8 | ||
| 20260507081506 | 0 | 0.0 | 0.0 | 0.00 | 0.00 | 0.00 | 1019.8 | ||
| 20260507080120 | 0 | 0.0 | 0.0 | 0.00 | 0.00 | 0.00 | 1019.7 | ||
| 20260507074501 | 0 | 0.0 | 0.0 | 0.00 | 0.00 | 0.00 | 1019.5 | ||
| 20260507073100 | 52 | 360 | 4.0 | 9.0 | 0.00 | 0.00 | 0.00 | 59 | 1019.5 |
| 20260507071605 | 51 | 360 | 5.0 | 5.0 | 0.00 | 0.00 | 0.00 | 59 | 1019.5 |
| 20260507070103 | 0 | 0.0 | 0.0 | 0.00 | 0.00 | 0.00 | 1019.4 | ||
| 20260507064625 | 0 | 0.0 | 0.0 | 0.00 | 0.00 | 0.00 | 1019.4 | ||
| 20260507063051 | 0 | 0.0 | 0.0 | 0.00 | 0.00 | 0.00 | 1019.4 | ||
| 20260507061542 | 0 | 0.0 | 0.0 | 0.00 | 0.00 | 0.00 | 1019.3 | ||
| 20260507060046 | 0 | 0.0 | 0.0 | 0.00 | 0.00 | 0.00 | 1019.3 | ||
| 20260507054541 | 0 | 0.0 | 0.0 | 0.00 | 0.00 | 0.00 | 1019.2 | ||
| 20260507053034 | 0 | 0.0 | 0.0 | 0.00 | 0.00 | 0.00 | 1019.0 | ||
| 20260507051528 | 0 | 0.0 | 0.0 | 0.00 | 0.00 | 0.00 | 1018.9 | ||
| 20260507050037 | 0 | 0.0 | 0.0 | 0.00 | 0.00 | 0.00 | 1018.8 | ||
| 20260507044519 | 0 | 0.0 | 0.0 | 0.00 | 0.00 | 0.00 | 1018.5 | ||
| 20260507043015 | 0 | 0.0 | 0.0 | 0.00 | 0.00 | 0.00 | 1018.4 | ||
| 20260507041521 | 0 | 0.0 | 0.0 | 0.00 | 0.00 | 0.00 | 1018.2 | ||
| 20260507040007 | 0 | 0.0 | 0.0 | 0.00 | 0.00 | 0.00 | 1018.3 | ||
| 20260507034505 | 0 | 0.0 | 0.0 | 0.00 | 0.00 | 0.00 | 1018.1 | ||
| 20260507033002 | 0 | 0.0 | 0.0 | 0.00 | 0.00 | 0.00 | 1018.0 | ||
| 20260507031557 | 0 | 0.0 | 0.0 | 0.00 | 0.00 | 0.00 | 1018.0 | ||
| 20260507030053 | 0 | 0.0 | 0.0 | 0.00 | 0.00 | 0.00 | 1018.0 | ||
| 20260507024549 | 0 | 0.0 | 0.0 | 0.00 | 0.00 | 0.00 | 1017.9 | ||
| 20260507023046 | 0 | 0.0 | 0.0 | 0.00 | 0.00 | 0.00 | 1017.8 | ||
| 20260507021543 | 0 | 0.0 | 0.0 | 0.00 | 0.00 | 0.00 | 1017.9 | ||
| 20260507020039 | 0 | 0.0 | 0.0 | 0.00 | 0.00 | 0.00 | 1017.8 | ||
| 20260507014534 | 0 | 0.0 | 0.0 | 0.00 | 0.00 | 0.00 | 1017.6 | ||
| 20260507013030 | 0 | 0.0 | 0.0 | 0.00 | 0.00 | 0.00 | 1017.7 | ||
| 20260507011526 | 0 | 0.0 | 0.0 | 0.00 | 0.00 | 0.00 | 1017.5 | ||
| 20260507010028 | 0 | 0.0 | 0.0 | 0.00 | 0.00 | 0.00 | 1017.4 | ||
| 20260507004519 | 0 | 0.0 | 0.0 | 0.00 | 0.00 | 0.00 | 1017.4 | ||
| 20260507003015 | 0 | 0.0 | 0.0 | 0.00 | 0.00 | 0.00 | 1017.4 | ||
| 20260507001515 | 0 | 0.0 | 0.0 | 0.00 | 0.00 | 0.00 | 1017.4 | ||
| 20260507000006 | 0 | 0.0 | 0.0 | 0.00 | 0.00 | 0.00 | 1017.3 | ||
| 20260506234509 | 0 | 0.0 | 0.0 | 0.00 | 0.00 | 0.00 | 1017.3 | ||
| 20260506233002 | 0 | 0.0 | 0.0 | 0.00 | 0.00 | 0.00 | 1017.2 | ||
| 20260506231610 | 0 | 0.0 | 0.0 | 0.00 | 0.00 | 0.00 | 1017.2 | ||
| 20260506230110 | 0 | 0.0 | 0.0 | 0.00 | 0.00 | 0.00 | 1017.2 | ||
| 20260506224553 | 0 | 0.0 | 0.0 | 0.00 | 0.00 | 0.00 | 1017.1 | ||
| 20260506223049 | 52 | 61 | 3.0 | 5.0 | 0.00 | 0.00 | 0.00 | 57 | 1017.0 |
| 20260506221608 | 52 | 36 | 3.0 | 10.0 | 0.00 | 0.00 | 0.00 | 57 | 1016.8 |
| 20260506220103 | 53 | 360 | 3.0 | 12.0 | 0.00 | 0.00 | 0.00 | 56 | 1016.8 |
| 20260506214544 | 53 | 360 | 4.0 | 14.0 | 0.00 | 0.00 | 0.00 | 55 | 1016.6 |
| 20260506213053 | 54 | 55 | 4.0 | 8.0 | 0.00 | 0.00 | 0.00 | 56 | 1016.5 |
| 20260506211539 | 54 | 59 | 4.0 | 10.0 | 0.00 | 0.00 | 0.00 | 56 | 1016.4 |
| 20260506210046 | 54 | 63 | 3.0 | 9.0 | 0.00 | 0.00 | 0.00 | 56 | 1016.4 |
| 20260506204538 | 54 | 360 | 4.0 | 9.0 | 0.00 | 0.00 | 0.00 | 55 | 1016.3 |
| 20260506203037 | 54 | 360 | 4.0 | 9.0 | 0.00 | 0.00 | 0.00 | 55 | 1016.1 |
| 20260506201539 | 54 | 38 | 2.0 | 10.0 | 0.00 | 0.00 | 0.00 | 57 | 1016.0 |
| 20260506200036 | 54 | 360 | 2.0 | 5.0 | 0.00 | 0.00 | 0.00 | 58 | 1015.9 |
| 20260506194532 | 54 | 23 | 3.0 | 8.0 | 0.00 | 0.00 | 0.00 | 58 | 1015.7 |
| 20260506193031 | 54 | 360 | 3.0 | 8.0 | 0.00 | 0.00 | 0.00 | 58 | 1015.6 |
| 20260506191527 | 55 | 360 | 2.0 | 5.0 | 0.00 | 0.00 | 0.00 | 58 | 1015.4 |
| 20260506190029 | 55 | 360 | 2.0 | 6.0 | 0.00 | 0.00 | 0.00 | 58 | 1015.3 |
| 20260506184525 | 55 | 360 | 2.0 | 8.0 | 0.00 | 0.00 | 0.00 | 58 | 1015.2 |
| 20260506183023 | 55 | 360 | 3.0 | 8.0 | 0.00 | 0.00 | 0.00 | 58 | 1015.1 |
| 20260506181519 | 55 | 54 | 2.0 | 6.0 | 0.00 | 0.00 | 0.00 | 58 | 1014.8 |
| 20260506180022 | 55 | 360 | 4.0 | 10.0 | 0.00 | 0.00 | 0.00 | 58 | 1014.7 |
| 20260506174523 | 55 | 360 | 4.0 | 10.0 | 0.00 | 0.00 | 0.00 | 57 | 1014.4 |
| 20260506173015 | 55 | 46 | 5.0 | 11.0 | 0.00 | 0.00 | 0.00 | 57 | 1014.1 |
| 20260506171525 | 56 | 23 | 6.0 | 12.0 | 0.00 | 0.00 | 0.00 | 55 | 1013.9 |
| 20260506170012 | 58 | 360 | 8.0 | 13.0 | 0.00 | 0.00 | 0.00 | 54 | 1013.9 |
| 20260506164510 | 59 | 360 | 8.0 | 15.0 | 0.00 | 0.00 | 0.00 | 54 | 1013.7 |
| 20260506163009 | 58 | 360 | 6.0 | 14.0 | 0.00 | 0.00 | 0.00 | 54 | 1013.6 |
| 20260506161509 | 58 | 360 | 5.0 | 13.0 | 0.00 | 0.00 | 0.00 | 54 | 1013.7 |
| 20260506160008 | 58 | 360 | 6.0 | 14.0 | 0.00 | 0.00 | 0.00 | 52 | 1013.7 |
| 20260506154512 | 59 | 360 | 6.0 | 16.0 | 0.00 | 0.00 | 0.00 | 52 | 1013.7 |
| 20260506153010 | 60 | 360 | 8.0 | 17.0 | 0.00 | 0.00 | 0.00 | 51 | 1013.6 |
| 20260506151509 | 60 | 360 | 7.0 | 16.0 | 0.00 | 0.00 | 0.00 | 51 | 1013.5 |
| 20260506150008 | 60 | 360 | 8.0 | 18.0 | 0.00 | 0.00 | 0.00 | 51 | 1013.5 |
| 20260506144507 | 60 | 360 | 7.0 | 15.0 | 0.00 | 0.00 | 0.00 | 53 | 1013.4 |
| 20260506143007 | 60 | 324 | 7.0 | 18.0 | 0.00 | 0.00 | 0.00 | 52 | 1013.3 |
| 20260506141506 | 59 | 360 | 7.0 | 13.0 | 0.00 | 0.00 | 0.00 | 50 | 1013.5 |
| 20260506140013 | 60 | 360 | 6.0 | 17.0 | 0.00 | 0.00 | 0.00 | 52 | 1013.5 |
| 20260506134503 | 60 | 360 | 4.0 | 15.0 | 0.00 | 0.00 | 0.00 | 53 | 1013.4 |
| 20260506133002 | 60 | 360 | 6.0 | 14.0 | 0.00 | 0.00 | 0.00 | 51 | 1013.4 |
| 20260506131617 | 60 | 30 | 4.0 | 14.0 | 0.00 | 0.00 | 0.00 | 50 | 1013.4 |
| 20260506130059 | 59 | 360 | 6.0 | 15.0 | 0.00 | 0.00 | 0.00 | 51 | 1013.3 |
| 20260506124559 | 58 | 54 | 7.0 | 15.0 | 0.00 | 0.00 | 0.00 | 52 | 1013.2 |
| 20260506123058 | 58 | 360 | 6.0 | 15.0 | 0.00 | 0.00 | 0.00 | 52 | 1013.1 |
| 20260506121600 | 59 | 38 | 5.0 | 13.0 | 0.00 | 0.00 | 0.00 | 53 | 1013.1 |
| 20260506120101 | 58 | 360 | 5.0 | 14.0 | 0.00 | 0.00 | 0.00 | 54 | 1013.1 |
| 20260506114557 | 59 | 360 | 5.0 | 15.0 | 0.00 | 0.00 | 0.00 | 57 | 1013.0 |
| 20260506113053 | 58 | 50 | 5.0 | 14.0 | 0.00 | 0.00 | 0.00 | 57 | 1013.0 |
| 20260506111551 | 58 | 360 | 6.0 | 17.0 | 0.00 | 0.00 | 0.00 | 56 | 1013.0 |
| 20260506110050 | 58 | 360 | 3.0 | 13.0 | 0.00 | 0.00 | 0.00 | 55 | 1013.0 |
| 20260506104554 | 57 | 360 | 4.0 | 12.0 | 0.00 | 0.00 | 0.00 | 56 | 1012.9 |
| 20260506103052 | 57 | 54 | 5.0 | 12.0 | 0.00 | 0.00 | 0.00 | 56 | 1012.9 |
| 20260506101545 | 56 | 335 | 4.0 | 11.0 | 0.00 | 0.00 | 0.00 | 57 | 1012.9 |
| 20260506100053 | 55 | 360 | 4.0 | 11.0 | 0.00 | 0.00 | 0.00 | 58 | 1012.8 |
| 20260506094543 | 55 | 22 | 4.0 | 13.0 | 0.00 | 0.00 | 0.00 | 60 | 1012.8 |
| 20260506093043 | 55 | 360 | 5.0 | 10.0 | 0.00 | 0.00 | 0.00 | 59 | 1012.8 |
| 20260506091545 | 56 | 350 | 5.0 | 12.0 | 0.00 | 0.00 | 0.00 | 58 | 1012.8 |
| 20260506090041 | 55 | 360 | 4.0 | 11.0 | 0.00 | 0.00 | 0.00 | 59 | 1012.7 |
| 20260506084540 | 55 | 35 | 6.0 | 14.0 | 0.00 | 0.00 | 0.00 | 60 | 1012.7 |